Regional Weather Roundup
Issued by NWS

Home | Current Version | Previous Version | Graphics & Text | Print | Product List | Glossary On
Versions: 1 2 3 4 5 6 7 8 9 10 11 12 13 14 15 16 17 18 19 20 21 22 23 24 25 26 27 28 29 30 31 32 33 34 35 36 37 38 39 40 41 42 43 44 45 46 47 48 49 50
000
ASUS43 KDTX 010710
RWRMI
MICHIGAN HOURLY REGIONAL WEATHER ROUNDUP
NATIONAL WEATHER SERVICE DETROIT/PONTIAC MI
300 AM EDT TUE SEP 01 2015

NOTE: "FAIR" INDICATES FEW OR NO CLOUDS BELOW 12,000 FEET WITH NO
SIGNIFICANT WEATHER AND/OR OBSTRUCTION TO VISIBILITY.

MIZ047>049-052>055-059>063-066>070-074>076-081>083-010800-
SOUTHEAST LOWER MICHIGAN

CITY           SKY/WX    TMP DP  RH WIND       PRES   REMARKS
ADRIAN         CLEAR     63  62  97 SW3       30.09S FOG
ALMA           FOG       59  59 100 CALM      30.06F VSB 1/2
ANN ARBOR      CLEAR     60  60 100 CALM      30.08S FOG
BAD AXE        FOG       62  62  99 CALM      30.06S VSB 3/4
CARO           FOG       59  59 100 CALM      30.06S VSB 1/4
DETROIT CITY   CLEAR     69  64  84 CALM      30.07S
DETROIT        FOG       70  68  93 CALM      30.07F VSB 1
FLINT          FOG       61  58  90 CALM      30.07S VSB 1/4
GROSSE ILE     FOG       72  70  94 CALM      30.06S VSB<1/4
HILLSDALE      CLEAR     65  65 100 CALM      30.10S FOG
HOWELL         FOG       65  64  98 SW3       30.08S VSB 1

CITY           SKY/WX    TMP DP  RH WIND       PRES   REMARKS
JACKSON        CLEAR     64  63  96 SW3       30.08F FOG
LAMBERTVILLE     N/A     66  64  92 CALM      30.08S FOG
LANSING        CLEAR     65  64  97 CALM      30.07F
LAPEER         FOG       58  58 100 CALM      30.07F VSB 1/2
MASON          FOG       63  60  92 CALM      30.08S VSB 1/2
MONROE         FOG       65  64  97 CALM      30.07S VSB 3/4
MT. CLEMENS    CLEAR     64  63  96 CALM      30.05F
PONTIAC        CLEAR     63  62  97 CALM      30.07F FOG
PORT HOPE        N/A     67  65  93 SW5       30.03S
PORT HURON     FOG       59  59 100 CALM      30.07F VSB 1/4
TRI CITIES     CLEAR     67  64  90 SW6       30.06S FOG
MIDLAND        FOG       60  59  97 CALM      30.04F VSB 1/2
TROY           CLEAR     68  65  90 CALM      30.09S
SAGINAW HB     FOG       63  63 100 CALM      30.05S VSB 3/4
$$
MIZ043>046-050>051-056>058-064>065-071>073-077>080-010800-
SOUTHWEST LOWER MICHIGAN

CITY           SKY/WX    TMP DP  RH WIND       PRES   REMARKS
BATTLE CREEK   PTCLDY    68  65  90 CALM      30.08F
BENTON HARBOR  CLEAR     69  67  93 CALM      30.06S FOG
BIG RAPIDS     CLOUDY    58  57  98 CALM      30.06S FOG
COLDWATER      CLEAR     64  64 100 CALM      30.08F FOG
FREMONT        FOG       61  61 100 CALM      30.05S VSB 1/4
HOLLAND        CLEAR     65  63  93 CALM      30.06F FOG
GRAND RAPIDS   CLEAR     65  64  97 CALM      30.06F FOG
IONIA          FOG       64  64 100 CALM      30.06F VSB 1/2
KALAMAZOO      CLEAR     68  66  93 S3        30.08S FOG
LUDINGTON      CLEAR     63  61  93 CALM      30.04S FOG
MARSHALL       FOG       62  62  98 CALM      30.08S VSB 1/2
MOUNT PLEASANT FOG       62  60  94 CALM      30.05S VSB<1/4
MUSKEGON       CLEAR     65  61  87 CALM      30.05F FOG
SOUTH HAVEN    CLEAR     67  65  95 CALM      30.06S FOG
$$
MIZ016>042-010800-
NORTHERN LOWER MICHIGAN

CITY           SKY/WX    TMP DP  RH WIND       PRES   REMARKS
ALPENA         CLEAR     59  56  89 CALM      30.03S
BEAVER ISLAND  CLEAR     67  65  95 SW9G17    30.00S FOG
BELLAIRE         N/A     62  61  96 CALM      30.02S FOG
CADILLAC       FOG       59  57  94 SW3       30.06S VSB 1/4
CHARLEVOIX     CLEAR     66  65  97 S3        30.04S
FRANKFORT      CLEAR     68  64  89 CALM      30.03S
GAYLORD        CLEAR     64  64 100 SW5       30.04F FOG
GRAYLING       FOG       57  56  97 CALM      30.05S VSB 1/2
HARBOR SPRINGS CLEAR     65  64  97 CALM      30.01S
HOUGHTON LAKE  CLEAR     64  63  96 SW7       30.06S
MANISTEE       CLEAR     61  57  88 E3        30.04S
OSCODA         CLEAR     64  64  98 SW5       30.02S FOG
PELLSTON       PTCLDY    57  56  96 N3        30.01S FOG
ROGERS CITY    FOG       61  59  95 CALM      30.02F VSB 1
TRAVERSE CITY  CLEAR     67  63  87 CALM      30.02S
$$
MIZ007>008-015-010800-
EASTERN UPPER MICHIGAN

CITY           SKY/WX    TMP DP  RH WIND       PRES   REMARKS
KINROSS        CLOUDY    64  64 100 S3        30.00R
MACKINAC ISLAN CLEAR     65  64  96 SW7       30.00S
NEWBERRY       CLOUDY    66  66  99 SW8       29.98S FOG
S. S. MARIE    CLOUDY    64  63  96 CALM      29.99S FOG
MUNISING         N/A     70  66  87 S9        29.95R
$$
MIZ004>006-011>014-085-010800-
CENTRAL UPPER MICHIGAN

CITY           SKY/WX    TMP DP  RH WIND       PRES   REMARKS
MANISTIQUE     CLOUDY    64  63  97 SW9       29.98S FOG
ESCANABA       CLOUDY    63  61  94 CALM      29.97S VSB 1/4
MENOMINEE      CLEAR     66  63  88 SW6       29.98F
SAWYER-GWINN   CLEAR     65  64  96 S5        29.97S FOG
$$
MIZ001>003-009>011-084-010800-
WESTERN UPPER MICHIGAN

CITY           SKY/WX    TMP DP  RH WIND       PRES   REMARKS
IRON MOUNTAIN  CLEAR     64  63  96 S6        29.97S FOG
HOUGHTON       PTCLDY    69  66  90 SW5       29.90S
IRONWOOD       CLEAR     72  70  94 S9G16     29.90S
$$

ABBREVIATIONS USED IN REMARKS
   TC - TEMPERATURE IN CELSIUS
  WCI - WIND CHILL INDEX
   HX - HEAT INDEX
  VSB - VISIBILITY




USA.gov is the U.S. government's official web portal to all federal, state and local government web resources and services.